Terminal Aerodrome Forecast
Issued by NWS Buffalo, NY

Home | Current Version | Previous Version | Text Only | Print | Product List | Glossary On
Versions: 1 2 3 4 5 6 7 8 9 10 11 12 13 14 15 16 17 18 19 20 21 22 23 24 25 26 27 28 29 30 31 32 33 34 35 36
000
FTUS41 KBUF 190900 AAA
TAFBUF
TAF AMD
KBUF 190916Z 1909/2006 27008KT P6SM OVC014
     FM191300 31007KT P6SM BKN015
     FM191800 30008KT P6SM OVC025
     FM200000 VRB03KT P6SM BKN020=

USA.gov is the U.S. government's official web portal to all federal, state and local government web resources and services.